DW9615 Home Hill AU current weather conditions

sailwx.info

Wind from 046

Air temperature 25.6° C
Dewpoint 23.2° C

Last reported at 2017-Jan-21 12:39 UTC.
Time now 2017-Jan-21 13:26 UTC

Location: S 19°40' E 147°25'.
View on Google Maps.

See reports from other nearby stations

  
Tides and Currents Weather Stations Pressure Air Temp Water Temp Dewpoint Dewpoint Depression Visibility Wind Speed Wind Dir Waves Ship Positions
date/time (UTC)wind fromknots sea level pressurealtimeterstation pressurevisibilityair tempwater tempwave heightnotes
2017-Jan-21 12:54 046 25.6
2017-Jan-21 12:39 046 25.6
2017-Jan-21 12:24 046 26.1
2017-Jan-21 12:09 046 26.1
2017-Jan-21 11:54 046 26.1
2017-Jan-21 11:39 046 26.1
2017-Jan-21 11:24 046 26.1
2017-Jan-21 11:09 046 26.7
2017-Jan-21 10:55 046 26.7
2017-Jan-21 10:39 046 26.7
2017-Jan-21 10:24 046 26.7
2017-Jan-21 10:09 046 27.2
2017-Jan-21 09:54 046 27.2
2017-Jan-21 09:39 046 27.8
2017-Jan-21 09:24 047 27.8
2017-Jan-21 09:09 048 28.3
2017-Jan-21 08:54 047 28.9
2017-Jan-21 08:39 014 28.9
2017-Jan-21 08:24 035 29.4
2017-Jan-21 08:09 048 30.0
2017-Jan-21 07:54 048 0 gusting 8 30.0
2017-Jan-21 07:39 037 1 gusting 8 30.6
2017-Jan-21 07:24 045 1 gusting 7 30.6
2017-Jan-21 07:09 027 2 gusting 9 31.1
2017-Jan-21 06:54 015 0 gusting 7 31.1
2017-Jan-21 06:39 030 1 gusting 6 31.7
2017-Jan-21 06:24 344 1 gusting 6 31.7
2017-Jan-21 06:09 008 0 gusting 6 31.7
2017-Jan-21 05:54 070 0 gusting 6 31.7
2017-Jan-21 05:39 038 3 gusting 8 32.2
2017-Jan-21 05:24 049 3 gusting 7 32.2
2017-Jan-21 05:09 018 0 gusting 8 32.2
2017-Jan-21 04:54 008 1 gusting 8 32.2
2017-Jan-21 04:24 053 1 gusting 7 32.2
2017-Jan-21 04:09 342 0 gusting 6 32.2
2017-Jan-21 03:54 010 1 gusting 7 32.8
2017-Jan-21 03:38 033 1 gusting 6 32.8
2017-Jan-21 03:23 348 1 gusting 8 32.8
2017-Jan-21 03:08 022 3 gusting 10 32.8
2017-Jan-21 02:53 053 3 gusting 8 32.8
2017-Jan-21 02:38 108 1 gusting 5 32.8
2017-Jan-21 02:23 034 0 gusting 5 32.8
2017-Jan-21 02:08 058 1 gusting 6 32.8
2017-Jan-21 01:53 270 0 gusting 3 32.2
2017-Jan-21 01:38 354 1 gusting 6 32.2
2017-Jan-21 01:23 025 0 gusting 6 32.2
2017-Jan-21 01:08 052 0 gusting 6 31.7
2017-Jan-21 00:53 308 3 gusting 6 31.7
2017-Jan-21 00:38 052 1 gusting 6 31.1
2017-Jan-21 00:23 069 31.1
2017-Jan-21 00:08 325 0 gusting 6 30.6
2017-Jan-20 23:53 010 0 gusting 4 30.6
2017-Jan-20 23:38 071 0 gusting 5 30.6
2017-Jan-20 23:23 356 1 gusting 4 30.0
2017-Jan-20 23:07 230 29.4
2017-Jan-20 22:52 340 29.4
2017-Jan-20 22:37 052 29.4
2017-Jan-20 22:22 263 28.9
2017-Jan-20 22:07 264 27.8
2017-Jan-20 21:52 254 27.2
2017-Jan-20 21:37 310 26.7
2017-Jan-20 21:22 314 26.1
2017-Jan-20 21:07 315 25.6
2017-Jan-20 20:52 317 24.4
2017-Jan-20 20:37 318 23.3
2017-Jan-20 20:22 319 22.8
2017-Jan-20 20:07 319 22.8
2017-Jan-20 19:52 319 22.8
2017-Jan-20 19:37 319 22.8
2017-Jan-20 19:22 320 22.8
2017-Jan-20 19:07 320 22.8
2017-Jan-20 18:52 320 22.8
2017-Jan-20 18:37 039 22.8
2017-Jan-20 18:22 040 22.8
2017-Jan-20 18:07 040 22.8
2017-Jan-20 17:52 040 22.8
2017-Jan-20 17:37 041 23.3
2017-Jan-20 17:22 041 23.3
2017-Jan-20 17:07 041 23.3
2017-Jan-20 16:52 041 23.3
2017-Jan-20 16:37 041 23.3
2017-Jan-20 16:22 041 23.3
2017-Jan-20 16:07 041 23.3
2017-Jan-20 15:52 041 23.3
2017-Jan-20 15:36 041 23.9
2017-Jan-20 15:21 041 23.9
2017-Jan-20 15:06 040 23.9
2017-Jan-20 14:51 040 23.9
2017-Jan-20 14:36 040 23.9
2017-Jan-20 14:21 040 23.9
2017-Jan-20 14:06 040 24.4
2017-Jan-20 13:51 040 24.4
2017-Jan-20 13:36 040 24.4
2017-Jan-20 13:21 039 25.0
2017-Jan-20 13:06 039 25.0
2017-Jan-20 12:51 039 25.0
2017-Jan-20 12:36 039 25.6
2017-Jan-20 12:21 039 25.6
2017-Jan-20 12:06 039 25.6
2017-Jan-20 11:51 039 25.6
2017-Jan-20 11:36 039 25.6
2017-Jan-20 11:21 039 26.1
2017-Jan-20 11:06 039 26.1
2017-Jan-20 10:51 040 26.1
2017-Jan-20 10:36 040 26.1
2017-Jan-20 10:21 041 26.7
2017-Jan-20 10:06 041 26.7
2017-Jan-20 09:51 044 27.2
2017-Jan-20 09:36 046 27.2
2017-Jan-20 09:21 048 0 gusting 3 27.2
2017-Jan-20 09:06 047 27.8
2017-Jan-20 08:51 046 28.3
2017-Jan-20 08:36 048 28.9
2017-Jan-20 08:21 042 28.9
2017-Jan-20 08:06 033 29.4
2017-Jan-20 07:51 039 4 gusting 6 30.0
2017-Jan-20 07:36 026 2 gusting 8 30.0
2017-Jan-20 07:21 031 2 gusting 7 30.6
2017-Jan-20 07:06 047 0 gusting 6 30.6
2017-Jan-20 06:51 049 1 gusting 7 30.6
2017-Jan-20 06:36 339 1 gusting 9 31.1
2017-Jan-20 06:21 036 3 gusting 6 31.1
2017-Jan-20 06:06 050 1 gusting 8 31.7
2017-Jan-20 05:51 099 2 gusting 9 31.7
2017-Jan-20 05:36 353 2 gusting 7 31.7
2017-Jan-20 05:06 037 1 gusting 7 32.2
2017-Jan-20 04:51 029 32.2
2017-Jan-20 04:36 055 3 gusting 7 32.2
2017-Jan-20 04:21 025 1 gusting 5 32.2
2017-Jan-20 04:06 038 1 gusting 9 32.2
2017-Jan-20 03:51 046 0 gusting 6 32.2
2017-Jan-20 03:36 089 0 gusting 3 33.3
2017-Jan-20 03:21 341 32.2
2017-Jan-20 03:06 349 32.8
2017-Jan-20 02:51 109 0 gusting 6 32.2
2017-Jan-20 02:36 035 2 gusting 5 32.2
2017-Jan-20 02:20 333 0 gusting 3 32.2
2017-Jan-20 02:05 036 1 gusting 5 31.7
2017-Jan-20 01:50 045 0 gusting 6 31.7
2017-Jan-20 01:35 223 0 gusting 3 31.7
2017-Jan-20 01:20 350 1 gusting 6 31.7
2017-Jan-20 01:05 082 0 gusting 4 31.1
2017-Jan-20 00:50 046 0 gusting 3 31.7
2017-Jan-20 00:35 048 31.1
2017-Jan-20 00:20 057 31.1
2017-Jan-20 00:05 044 0 gusting 5 30.6
2017-Jan-19 23:50 027 30.6
2017-Jan-19 23:35 042 30.0
2017-Jan-19 23:20 339 0 gusting 3 30.0
2017-Jan-19 23:05 062 30.0
2017-Jan-19 22:50 144 29.4
2017-Jan-19 22:35 229 28.9
2017-Jan-19 22:20 175 28.3
2017-Jan-19 22:05 175 27.8
2017-Jan-19 21:50 179 26.7
2017-Jan-19 21:35 248 26.1
2017-Jan-19 21:20 325 0 gusting 4 25.6
2017-Jan-19 21:05 330 24.4
2017-Jan-19 20:50 335 22.8
2017-Jan-19 20:34 335 22.2
2017-Jan-19 20:20 335 21.7
2017-Jan-19 20:05 335 21.7
2017-Jan-19 19:49 335 21.7
2017-Jan-19 19:34 335 21.7
2017-Jan-19 19:19 335 21.7
2017-Jan-19 19:04 335 22.2
2017-Jan-19 18:49 337 22.2
2017-Jan-19 18:34 337 22.8
2017-Jan-19 18:19 337 22.8
2017-Jan-19 18:04 338 22.2
2017-Jan-19 17:50 338 22.8
2017-Jan-19 17:34 339 22.8
2017-Jan-19 17:19 338 22.8
2017-Jan-19 17:04 338 23.3
2017-Jan-19 16:49 338 23.3
2017-Jan-19 16:34 338 23.3
2017-Jan-19 16:19 338 23.9
2017-Jan-19 16:04 338 23.9
2017-Jan-19 15:49 338 23.9
2017-Jan-19 15:34 338 23.9
2017-Jan-19 15:19 338 23.9
2017-Jan-19 15:04 338 23.9
2017-Jan-19 14:49 338 23.9
2017-Jan-19 14:34 338 24.4
2017-Jan-19 14:19 338 24.4
2017-Jan-19 14:04 339 24.4
2017-Jan-19 13:49 339 24.4
2017-Jan-19 13:34 339 24.4
2017-Jan-19 13:19 339 24.4
2017-Jan-19 13:04 339 25.0